STARLINK-33828, 63493

Orbit data source: Space-Track

STARLINK-33828, 63493 is a payload satellite owned by SpaceX/Seattle (US) in LEO that was launched on Mon, 07 Apr 2025 UTC via an FALCON 9 launch vehicle from the Air Force Western Test Range (AFWTR). Payload-class satellites include a variety of spacecraft equipped with specific instruments for various scientific and technological missions. These include communications satellites like Starlink; space stations such as the ISS; scientific satellites like the Hubble; Earth observation satellites from companies like Planet Labs, Umbra, and HawkEye 360; GPS; miniature CubeSats for education and research; and military/defense satellites.

Loading next visibility...
Identifier
63493, 2025-071A
Orbit
LEO
Country
Flag of USUS
Related business
Manufacturer
SpaceX/Seattle
Mission
Operational Commercial Communications
Bus & Motor
STARLINK V2MO, Unknown motor
Mass
575 kg wet, ~530 kg dry
Launch date (UTC)
2025-04-07 (10 months ago)
Launch vehicle
FALCON 9
Launch site
Air Force Western Test Range (AFWTR)
Object type
Payload
Rocket body
Debris
Shape & HBR
Box + 2 Pan, 17.7 m
Radar Cross Section
36.964 m², Large (>1 m²)

Expand to show TLE details & history
Last TLE update: 2 days ago

TLE from 2 days ago
0 STARLINK-33828
1 63493U 25071A   26033.05432845  .00025795  00000-0  88001-3 0  9993
2 63493  53.1585 307.6168 0001242  92.0561 268.0582 15.30200239 47262
Epoch: 2026-02-02T01:18Z
TLE epoch observation values (Epoch: 2026-02-02T01:18:13.978Z)
Latitude
Longitude
155.80344°
Altitude
476.143 km
Speed
7.629 km/s
True Right ascension
20h 30m 28s
True Declination
0° 00' 00"
Sunlit
Object was in daylight at epoch
Visualization orbit readout
Latitude
Unknown
Longitude
Unknown
Altitude
Unknown
Speed
Unknown
Apparent Right ascension
Unknown
Apparent Declination
Unknown
Sunlit
N/A
Visualization observer readout
Local Sidereal Time
22:54:03
Azimuth
Unknown
Elevation
Unknown
Doppler factor
Unknown
Orbital elements
Apogee altitude
476.322 km
Perigee altitude
474.62 km
Semi-major axis
6,853.608 km
Eccentricity
0.00012
Inclination
53.1585°
RAAN
307.6168°
Arg. of periapsis
92.0561°
True anomaly
268.04398°
Mean anomaly
268.0582°
Eccentric anomaly
268.05109°
Mean motion
3.82529 °/min
Orbital period
94.11 mins
BSTAR
0.00088001
Loading maneuver chart data...
Computing Atmospheric mass density...
Loading historical data...
Loading historical data...
Loading historical data...
Loading historical data...
Loading historical data...
Loading historical data...
Loading historical data...

Documentation

Showing up to 5 results
|